time_stamp(utc),avg(mph),gust(mph),direction(deg),12m_air_temp(f),sonic_u(cm/s),sonic_v(cm/s),sonic_w(cm/s),pressure,2m_air_temp(f),pyranometer(W/m^2)
"2020-12-30 00:02:39+00",14.1,16.1,,34.9,-508,385,31,1033.76,33.8,0
"2020-12-30 00:07:39+00",10.7,13.7,,34.5,-407,237,34,1033.86,33.7,0
"2020-12-30 00:12:39+00",9.3,11.3,,34.1,-381,194,18,1034.04,33.5,0
"2020-12-30 00:17:39+00",11.2,12.2,,34,-419,281,24,1034.1,33.1,0
"2020-12-30 00:22:39+00",11.8,13.8,,34,-434,301,23,1034.05,33.1,0
"2020-12-30 00:27:39+00",12.3,13.3,,33.8,-438,335,23,1034.13,33,0
"2020-12-30 00:32:39+00",10.9,11.9,,33.7,-404,275,30,1034.13,32.9,0
"2020-12-30 00:37:39+00",10.6,11.6,,33.5,-402,267,24,1034.15,32.7,0
"2020-12-30 00:42:39+00",11.0,12.0,,33.3,-374,316,24,1034.3,32.5,0
"2020-12-30 00:47:39+00",10.8,11.8,,33.2,-402,273,14,1034.29,32.4,0
"2020-12-30 00:52:39+00",10.3,12.3,,33.2,-385,261,28,1034.48,32.2,0
"2020-12-30 00:57:39+00",10.7,10.7,,33.2,-411,260,27,1034.42,32.1,0
"2020-12-30 01:02:39+00",11.0,12.0,,33.2,-379,306,22,1034.35,32,0
"2020-12-30 01:07:39+00",8.4,9.4,,33,-277,257,29,1034.39,32,0
"2020-12-30 01:12:39+00",8.4,10.4,,33,-280,248,25,1034.38,31.8,0
"2020-12-30 01:17:39+00",9.3,10.3,,33.2,-314,264,14,1034.64,31.9,0
"2020-12-30 01:22:39+00",8.8,9.8,,33.1,-254,302,19,1034.52,31.8,0
"2020-12-30 01:27:39+00",10.4,11.4,,32.7,-259,380,15,1034.33,31.3,0
"2020-12-30 01:32:39+00",9.0,10.0,,31.8,-164,354,3,1034.33,30.7,0
"2020-12-30 01:37:39+00",6.1,6.1,,31,-110,240,4,1034.42,30.1,0
"2020-12-30 01:42:39+00",5.8,5.8,,30.6,-84,236,-3,1034.44,29.4,0
"2020-12-30 01:47:39+00",7.1,7.1,,30.4,-91,296,1,1034.57,28.9,0
"2020-12-30 01:52:39+00",6.4,7.4,,30.3,-105,257,9,1034.53,28.4,0
"2020-12-30 01:57:39+00",5.0,6.0,,30.1,-72,204,-1,1034.52,28.1,0
"2020-12-30 02:02:39+00",5.5,6.5,,30.1,-108,211,4,1034.61,27.9,0
"2020-12-30 02:07:39+00",7.5,8.5,,30.3,-150,295,7,1034.62,27.8,0
"2020-12-30 02:12:39+00",8.6,9.6,,30.5,-220,307,11,1034.44,27.8,0
"2020-12-30 02:17:39+00",5.8,6.8,,30.7,-140,213,5,1034.66,27.8,0
"2020-12-30 02:22:39+00",9.0,9.0,,30.9,-252,308,19,1034.32,27.9,0
"2020-12-30 02:27:39+00",9.6,10.6,,31.1,-205,369,13,1034.55,28.1,0
"2020-12-30 02:32:39+00",7.6,8.6,,30.6,-173,293,13,1034.48,28.3,0
"2020-12-30 02:37:39+00",6.7,7.7,,30.4,-153,246,8,1034.68,28.3,0
"2020-12-30 02:42:39+00",9.6,10.6,,30.6,-211,366,17,1034.27,28.2,0
"2020-12-30 02:47:39+00",8.3,10.3,,30.3,-122,344,-2,1034.5,28.1,0
"2020-12-30 02:52:39+00",7.0,7.0,,30.2,-81,292,-4,1034.78,27.8,0
"2020-12-30 02:57:39+00",7.1,8.1,,29.8,-149,266,8,1034.64,27.5,0
"2020-12-30 03:02:39+00",9.0,10.0,,29.7,-123,383,0,1034.71,27.3,0
"2020-12-30 03:07:39+00",8.8,9.8,,29.7,-220,321,16,1034.69,27.2,0
"2020-12-30 03:12:39+00",6.7,7.7,,29.9,-102,266,-6,1035.09,27.2,0
"2020-12-30 03:17:39+00",8.6,9.6,,30.2,-165,339,8,1034.97,27.2,0
"2020-12-30 03:22:39+00",10.1,11.1,,30.4,-240,375,14,1034.81,27.4,0
"2020-12-30 03:27:39+00",7.1,8.1,,30.3,-141,270,4,1035.1,27.5,0
"2020-12-30 03:32:39+00",8.0,9.0,,30.4,-243,263,11,1035.14,27.7,0
"2020-12-30 03:37:39+00",10.2,11.2,,30.8,-229,385,17,1035.09,28,0
"2020-12-30 03:42:39+00",8.5,9.5,,30.6,-229,296,13,1035.27,28.1,0
"2020-12-30 03:47:39+00",7.4,8.4,,30.6,-196,259,8,1035.48,28.2,0
"2020-12-30 03:52:39+00",9.7,10.7,,30.8,-285,320,17,1035.21,28.2,0
"2020-12-30 03:57:39+00",7.2,8.2,,31,-241,225,6,1035.6,28.4,0
"2020-12-30 04:02:39+00",8.5,8.5,,31.1,-267,265,16,1035.67,28.7,0
"2020-12-30 04:07:39+00",8.0,9.0,,31,-257,253,13,1035.7,28.9,0
"2020-12-30 04:12:39+00",9.6,10.6,,30.9,-330,275,22,1035.69,29.1,0
"2020-12-30 04:17:39+00",8.5,9.5,,31,-256,281,18,1035.51,29.3,0
"2020-12-30 04:22:39+00",7.7,8.7,,30.7,-250,238,18,1035.68,29.4,0
"2020-12-30 04:27:39+00",8.2,9.2,,30.7,-282,240,18,1035.51,29.3,0
"2020-12-30 04:32:39+00",8.6,9.6,,30.6,-250,280,13,1035.31,29.2,0
"2020-12-30 04:37:39+00",7.4,8.4,,30.4,-236,232,8,1035.46,28.9,0
"2020-12-30 04:42:39+00",10.1,11.1,,30.4,-241,369,15,1035.25,28.7,0
"2020-12-30 04:47:39+00",9.0,10.0,,29.7,-287,276,18,1035.27,28.3,0
"2020-12-30 04:52:39+00",8.3,9.3,,29.3,-224,289,12,1035.31,28.2,0
"2020-12-30 04:57:39+00",9.2,10.2,,28.8,-206,344,14,1035.37,27.8,0
"2020-12-30 05:02:39+00",9.3,10.3,,28.5,-273,306,18,1035.18,27.4,0
"2020-12-30 05:07:39+00",8.2,9.2,,28.6,-195,303,8,1035.34,27.3,0
"2020-12-30 05:12:39+00",9.4,9.4,,28.6,-252,329,17,1035.05,27,0
"2020-12-30 05:17:39+00",8.5,8.5,,28.7,-208,313,11,1035.12,26.9,0
"2020-12-30 05:22:39+00",8.8,9.8,,28.7,-199,331,10,1035.02,26.8,0
"2020-12-30 05:27:39+00",8.3,9.3,,28.5,-125,345,2,1035.05,26.6,0
"2020-12-30 05:32:39+00",6.5,7.5,,28.4,-176,225,6,1035.28,26.4,0
"2020-12-30 05:37:39+00",9.2,10.2,,28.6,-205,349,14,1035.06,26.3,0
"2020-12-30 05:42:39+00",7.3,8.3,,28.5,-192,251,14,1035.3,26.3,0
"2020-12-30 05:47:39+00",7.7,8.7,,28.5,-202,274,11,1034.98,26.4,0
"2020-12-30 05:52:39+00",8.7,9.7,,28.8,-252,293,15,1035.03,26.5,0
"2020-12-30 05:57:39+00",7.4,8.4,,28.9,-215,248,7,1035.18,26.6,0
"2020-12-30 06:02:39+00",8.9,9.9,,29,-260,291,20,1035.23,26.8,0
"2020-12-30 06:07:39+00",8.2,9.2,,29,-241,274,12,1035.28,27,0
"2020-12-30 06:12:39+00",8.5,9.5,,28.8,-169,332,10,1034.97,27.2,0
"2020-12-30 06:17:39+00",7.1,8.1,,28.2,-152,271,6,1034.93,27.1,0
"2020-12-30 06:22:39+00",7.5,7.5,,27.6,-21,324,9,1034.81,26.8,0
"2020-12-30 06:27:39+00",8.2,9.2,,27.6,-85,351,-1,1034.78,26.4,0
"2020-12-30 06:32:39+00",6.4,8.4,,27.5,-32,284,4,1034.86,26.1,0
"2020-12-30 06:37:39+00",7.1,7.1,,27.3,-77,302,6,1035.02,25.8,0
"2020-12-30 06:42:39+00",8.6,9.6,,27.6,-41,384,-2,1035.14,25.5,0
"2020-12-30 06:47:39+00",8.4,8.4,,27.7,-27,363,5,1035.16,25.4,0
"2020-12-30 06:52:39+00",7.7,8.7,,27.5,-59,333,2,1035.17,25.2,0
"2020-12-30 06:57:39+00",8.9,9.9,,27.5,-28,386,5,1035.31,25.1,0
"2020-12-30 07:02:39+00",8.4,8.4,,27.6,-33,372,9,1035.35,24.9,0
"2020-12-30 07:07:39+00",9.0,10.0,,27.6,-35,392,9,1035.38,24.8,0
"2020-12-30 07:12:39+00",8.4,9.4,,27.7,-38,374,4,1035.49,24.7,0
"2020-12-30 07:17:39+00",8.7,9.7,,27.7,17,379,1,1035.71,24.7,0
"2020-12-30 07:22:39+00",10.0,11.0,,27.9,-41,438,11,1035.62,24.8,0
"2020-12-30 07:27:39+00",8.9,8.9,,28.1,46,386,2,1035.62,24.8,0
"2020-12-30 07:32:39+00",7.7,8.7,,28,24,333,-3,1035.61,25,0
"2020-12-30 07:37:39+00",8.3,9.3,,28.1,-14,366,8,1035.65,25,0
"2020-12-30 07:42:39+00",8.0,8.0,,28.2,-39,346,10,1035.81,25,0
"2020-12-30 07:47:39+00",8.5,9.5,,28.3,39,367,0,1035.75,25,0
"2020-12-30 07:52:39+00",7.4,8.4,,28.3,55,305,-1,1035.62,25.4,0
"2020-12-30 07:57:39+00",9.1,10.1,,28.3,39,398,-4,1035.62,25.5,0
"2020-12-30 08:02:39+00",8.0,8.0,,28.4,113,327,-5,1035.59,25.7,0
"2020-12-30 08:07:39+00",7.7,8.7,,28.7,47,312,1,1035.46,25.7,0
"2020-12-30 08:12:39+00",8.5,9.5,,28.7,78,349,-4,1035.32,25.9,0
"2020-12-30 08:17:39+00",8.5,9.5,,28.9,68,353,2,1035.04,26.1,0
"2020-12-30 08:22:39+00",7.3,9.3,,28.8,95,287,-4,1034.89,26.4,0
"2020-12-30 08:27:39+00",7.8,8.8,,28.7,121,313,-4,1034.89,26.5,0
"2020-12-30 08:32:39+00",7.2,8.2,,28.6,76,284,-2,1034.74,26.4,0
"2020-12-30 08:37:39+00",7.8,8.8,,28.5,108,315,-6,1034.55,26.4,0
"2020-12-30 08:42:39+00",7.7,7.7,,28.3,145,300,-3,1034.43,26.2,0
"2020-12-30 08:47:39+00",7.7,7.7,,28.3,146,300,0,1034.44,26.1,0
"2020-12-30 08:52:39+00",8.4,8.4,,28.5,150,333,-2,1034.34,26.1,0
"2020-12-30 08:57:39+00",7.2,8.2,,28.4,114,290,-3,1034.34,25.9,0
"2020-12-30 09:02:39+00",7.6,7.6,,28.3,102,310,-2,1034.15,25.9,0
"2020-12-30 09:07:39+00",6.6,6.6,,28.2,215,189,14,1034.17,25.9,0
"2020-12-30 09:12:39+00",6.8,6.8,,28.3,122,265,1,1034.07,25.9,0
"2020-12-30 09:17:39+00",6.8,7.8,,28.5,115,271,-2,1034.34,26,0
"2020-12-30 09:22:39+00",7.0,8.0,,28.6,57,285,1,1034.49,26.1,0
"2020-12-30 09:27:39+00",7.5,8.5,,28.6,73,301,-1,1034.46,26.2,0
"2020-12-30 09:32:39+00",7.6,8.6,,28.7,113,297,3,1034.19,26.6,0
"2020-12-30 09:37:39+00",5.2,6.2,,28.8,117,189,0,1034.44,27,0
"2020-12-30 09:42:39+00",5.3,6.3,,28.9,13,225,3,1034.42,27.2,0
"2020-12-30 09:47:39+00",6.0,7.0,,29,47,246,1,1034.25,27.3,0
"2020-12-30 09:52:39+00",6.2,7.2,,29.1,75,241,-5,1034.48,27.6,0
"2020-12-30 09:57:39+00",6.4,7.4,,29.2,-23,279,5,1034.85,27.7,0
"2020-12-30 10:02:39+00",5.1,6.1,,29.3,-79,201,8,1035.09,27.8,0
"2020-12-30 10:07:39+00",5.5,6.5,,29.2,-13,231,7,1034.76,28,0
"2020-12-30 10:12:39+00",5.1,6.1,,29,20,216,1,1034.86,28.1,0
"2020-12-30 10:17:39+00",5.2,5.2,,28.8,-23,222,5,1034.85,28.1,0
"2020-12-30 10:22:39+00",5.5,6.5,,28.7,15,234,0,1034.69,28.1,0
"2020-12-30 10:27:39+00",5.1,6.1,,28.7,41,206,-4,1034.52,28.1,0
"2020-12-30 10:32:39+00",5.5,6.5,,28.7,100,210,-3,1034.55,28.1,0
"2020-12-30 10:37:39+00",5.2,6.2,,28.8,54,200,0,1034.44,28.1,0
"2020-12-30 10:42:39+00",5.0,6.0,,28.9,145,155,7,1034.34,28.3,0
"2020-12-30 10:47:39+00",6.2,7.2,,29,123,237,-1,1034.31,28.3,0
"2020-12-30 10:52:39+00",5.4,6.4,,29,86,216,-1,1034.2,28.4,0
"2020-12-30 10:57:39+00",4.8,4.8,,29.1,167,126,5,1034.06,28.5,0
"2020-12-30 11:02:39+00",4.5,5.5,,29.2,97,155,-6,1034.06,28.5,0
"2020-12-30 11:07:39+00",5.3,5.3,,29.2,85,204,-2,1034.46,28.5,0
"2020-12-30 11:12:39+00",5.3,6.3,,29.2,-57,214,5,1034.86,28.5,0
"2020-12-30 11:17:39+00",5.8,6.8,,29.3,15,247,-2,1034.76,28.5,0
"2020-12-30 11:22:39+00",4.9,5.9,,29.3,78,191,-3,1034.48,28.5,0
"2020-12-30 11:27:39+00",4.2,5.2,,29.3,87,147,-2,1034.32,28.5,0
"2020-12-30 11:32:39+00",4.8,4.8,,29.4,112,153,-3,1034.26,28.5,0
"2020-12-30 11:37:39+00",5.4,6.4,,29.5,196,125,10,1033.74,28.7,0
"2020-12-30 11:42:39+00",5.8,5.8,,29.5,204,144,16,1033.71,28.8,0
"2020-12-30 11:47:39+00",5.2,6.2,,29.6,180,122,11,1033.61,28.9,0
"2020-12-30 11:52:39+00",4.7,4.7,,29.5,181,99,10,1033.21,28.9,0
"2020-12-30 11:57:39+00",5.4,6.4,,29.5,206,108,12,1032.93,28.9,0
"2020-12-30 12:02:39+00",5.3,6.3,,29.7,194,107,18,1033.01,28.9,0
"2020-12-30 12:07:39+00",5.3,6.3,,30.2,165,158,10,1032.99,29,0
"2020-12-30 12:12:39+00",3.2,4.2,,30,1,129,1,1033.4,29,0
"2020-12-30 12:17:39+00",3.5,3.5,,29.9,-74,126,12,1033.71,29,0
"2020-12-30 12:22:39+00",3.9,3.9,,30.1,-64,151,8,1033.75,29.1,0
"2020-12-30 12:27:39+00",4.6,5.6,,30.1,30,188,2,1033.42,29.1,0
"2020-12-30 12:32:39+00",3.8,3.8,,30.1,-56,144,7,1033.54,29.2,0
"2020-12-30 12:37:39+00",4.3,4.3,,30.1,-8,178,8,1033.56,29.2,0
"2020-12-30 12:42:39+00",3.9,3.9,,30.4,18,158,-2,1033.35,29.2,0
"2020-12-30 12:47:39+00",4.1,5.1,,30.4,15,173,-4,1033.34,29.3,0
"2020-12-30 12:52:39+00",3.9,3.9,,30.6,57,154,-4,1033.33,29.3,0
"2020-12-30 12:57:39+00",3.8,3.8,,30.7,28,144,-4,1033.51,29.5,0
"2020-12-30 13:02:39+00",3.3,4.3,,30.8,22,128,-3,1033.41,29.6,0
"2020-12-30 13:07:39+00",2.8,2.8,,31,-53,99,3,1033.68,29.8,0
"2020-12-30 13:12:39+00",3.2,3.2,,31.1,-82,102,5,1033.55,30,0
"2020-12-30 13:17:39+00",2.3,3.3,,31.1,-74,54,-1,1033.56,30.3,0
"2020-12-30 13:22:39+00",2.1,3.1,,31.1,-66,49,-1,1033.43,30.6,0
"2020-12-30 13:27:39+00",0.8,1.8,,31.3,-23,21,-6,1033.34,30.8,0
"2020-12-30 13:32:39+00",4.4,4.4,,31.5,-172,89,15,1033.73,31.2,0
"2020-12-30 13:37:39+00",2.4,3.4,,31.8,-93,21,-11,1033.44,31.7,0
"2020-12-30 13:42:39+00",3.0,4.0,,32,-112,-74,2,1033.57,32.1,0
"2020-12-30 13:47:39+00",2.8,3.8,,32.3,-111,-5,-8,1033.71,32.6,0
"2020-12-30 13:52:39+00",2.5,3.5,,32.5,-79,52,7,1033.72,32.9,0
"2020-12-30 13:57:39+00",2.9,3.9,,32.7,-112,27,13,1033.72,33.2,0
"2020-12-30 14:02:39+00",0.9,1.9,,32.9,-32,-26,4,1033.5,33.5,0
"2020-12-30 14:07:39+00",1.8,2.8,,33,-68,-43,15,1033.29,33.7,0
"2020-12-30 14:12:39+00",3.8,3.8,,33,-156,2,4,1033.63,33.9,0
"2020-12-30 14:17:39+00",4.1,5.1,,33.1,-174,30,0,1033.64,34.2,0
"2020-12-30 14:22:39+00",2.8,3.8,,33.3,-107,-2,7,1033.72,34.5,0
"2020-12-30 14:27:39+00",2.5,3.5,,33.3,-91,42,9,1033.26,34.8,0
"2020-12-30 14:32:39+00",3.8,3.8,,33.4,-148,-63,2,1033.24,35,0
"2020-12-30 14:37:39+00",4.1,5.1,,33.5,-155,-89,11,1033.4,35.2,0
"2020-12-30 14:42:39+00",3.7,4.7,,33.6,-149,-41,-8,1033.4,35.5,0
"2020-12-30 14:47:39+00",5.3,6.3,,33.9,-199,-107,14,1033.36,36.2,0
"2020-12-30 14:52:39+00",6.6,9.6,,34.4,-246,-142,34,1033.22,37.4,0
"2020-12-30 14:57:39+00",5.3,6.3,,34.9,-144,-167,0,1033.07,37.5,0
"2020-12-30 15:02:39+00",5.7,6.7,,34.9,-85,-215,-28,1032.69,37.4,0
"2020-12-30 15:07:39+00",5.0,7.0,,35.1,-153,-163,1,1032.55,37.1,0
"2020-12-30 15:12:39+00",6.1,7.1,,35.1,-199,-191,16,1032.89,37.4,0
"2020-12-30 15:17:39+00",4.7,5.7,,35.4,-114,-156,14,1032.55,37.4,0
"2020-12-30 15:22:39+00",3.5,4.5,,35.5,-82,-130,15,1032.4,37.6,0
"2020-12-30 15:27:39+00",4.5,5.5,,35.7,-138,-145,0,1032.19,37.6,0
"2020-12-30 15:32:39+00",5.9,6.9,,36,-227,-129,38,1032.58,38.3,0
"2020-12-30 15:37:39+00",5.4,7.4,,36.3,-171,-151,-6,1032.05,38.8,0
"2020-12-30 15:42:39+00",5.6,6.6,,36.5,-166,-176,16,1031.73,39.2,0
"2020-12-30 15:47:39+00",6.1,8.1,,36.6,-206,-180,30,1031.64,39.2,0
"2020-12-30 15:52:39+00",5.9,6.9,,36.8,-205,-149,15,1031.68,39.1,0
"2020-12-30 15:57:39+00",5.9,6.9,,36.9,-238,-106,3,1031.52,39.9,0
"2020-12-30 16:02:39+00",8.7,9.7,,36.6,-373,-66,-3,1031.39,40.3,0
"2020-12-30 16:07:39+00",8.6,10.6,,36.9,-344,-123,50,1031.23,40.9,0
"2020-12-30 16:12:39+00",8.2,9.2,,37.3,-337,-77,20,1031.04,41.6,0
"2020-12-30 16:17:39+00",7.9,8.9,,37.6,-339,-45,16,1030.93,42.7,0
"2020-12-30 16:22:39+00",9.0,13.0,,38,-379,-168,-3,1030.94,43.3,0
"2020-12-30 16:27:39+00",9.2,12.2,,38.2,-392,-139,-5,1030.62,43.7,0
"2020-12-30 16:32:39+00",6.8,8.8,,38.2,-217,-217,3,1030.47,43.2,0
"2020-12-30 16:37:39+00",6.9,8.9,,38.4,-260,-169,31,1030.34,42.7,0
"2020-12-30 16:42:39+00",10.7,12.7,,39.4,-351,-353,33,1030.04,43.2,0
"2020-12-30 16:47:39+00",12.1,14.1,,39.7,-339,-440,-8,1030.08,42.4,0
"2020-12-30 16:52:39+00",14.1,15.1,,40,-461,-422,10,1030.04,42.6,0
"2020-12-30 16:57:39+00",14.6,16.6,,40,-492,-417,7,1029.73,42.4,0
"2020-12-30 17:02:39+00",13.4,15.4,,39.9,-420,-408,6,1029.58,42.1,0
"2020-12-30 17:07:39+00",12.5,16.5,,40.1,-367,-403,32,1029.62,42.2,0
"2020-12-30 17:12:39+00",14.3,16.3,,40.3,-450,-439,7,1029.5,42.5,0
"2020-12-30 17:17:39+00",14.4,15.4,,40.5,-334,-564,3,1029.27,42.7,0
"2020-12-30 17:22:39+00",13.7,15.7,,40.7,-367,-505,10,1029.04,42.7,0
"2020-12-30 17:27:39+00",15.2,18.2,,41.1,-467,-481,30,1028.91,42.9,0
"2020-12-30 17:32:39+00",15.0,18.0,,41.3,-465,-468,50,1028.89,43.2,0
"2020-12-30 17:37:39+00",17.0,20.0,,41.4,-464,-634,20,1028.81,43.4,0
"2020-12-30 17:42:39+00",17.7,19.7,,41.4,-514,-621,-9,1028.6,43.2,0
"2020-12-30 17:47:39+00",16.6,19.6,,41.7,-525,-521,15,1028.41,43.5,0
"2020-12-30 17:52:39+00",16.1,20.1,,41.5,-544,-467,34,1028.34,42.9,0
"2020-12-30 17:57:39+00",14.7,18.7,,41.2,-449,-485,43,1028.38,42.3,0
"2020-12-30 18:02:39+00",15.2,20.2,,41.2,-442,-541,21,1028.44,42,0
"2020-12-30 18:07:39+00",17.5,19.5,,41.3,-459,-657,17,1028.28,41.9,0
"2020-12-30 18:12:39+00",17.0,20.0,,41.6,-526,-530,-6,1028.15,42.4,0
"2020-12-30 18:17:39+00",17.4,21.4,,42.1,-562,-530,7,1027.96,43.1,0
"2020-12-30 18:22:39+00",17.5,20.5,,42.3,-520,-576,7,1027.87,43.9,0
"2020-12-30 18:27:39+00",18.2,21.2,,42.3,-567,-554,19,1027.62,44.2,0
"2020-12-30 18:32:39+00",17.7,19.7,,42.2,-548,-535,-2,1027.66,44.2,0
"2020-12-30 18:37:39+00",13.1,16.1,,42.1,-422,-427,43,1027.45,43.5,0
"2020-12-30 18:42:39+00",13.3,16.3,,42.1,-368,-487,-1,1027.27,43.4,0
"2020-12-30 18:47:39+00",16.8,19.8,,42.5,-492,-610,10,1027.27,43.5,0
"2020-12-30 18:52:39+00",16.5,19.5,,42.7,-475,-593,-7,1027.28,43.6,0
"2020-12-30 18:57:39+00",13.4,17.4,,42.8,-379,-490,49,1027.1,43.8,0
"2020-12-30 19:02:39+00",19.7,21.7,,42.7,-567,-686,4,1026.9,43.8,0
"2020-12-30 19:07:39+00",14.8,16.8,,42.8,-428,-537,-10,1026.61,43.7,0
"2020-12-30 19:12:39+00",14.4,17.4,,43,-274,-593,16,1026.73,43.7,0
"2020-12-30 19:17:39+00",14.6,16.6,,42.7,-353,-578,3,1026.7,43.3,0
"2020-12-30 19:22:39+00",19.0,23.0,,43,-448,-745,-9,1026.74,43.7,0
"2020-12-30 19:27:39+00",15.8,18.8,,43.1,-438,-589,13,1026.77,44,0
"2020-12-30 19:32:39+00",18.0,20.0,,43.2,-489,-690,11,1026.61,44.2,0
"2020-12-30 19:37:39+00",18.4,21.4,,43.3,-485,-701,22,1026.21,44.2,0
"2020-12-30 19:42:39+00",18.9,20.9,,43.3,-474,-731,-2,1026.14,44.1,0
"2020-12-30 19:47:39+00",17.8,20.8,,43.1,-445,-696,12,1025.95,44,0
"2020-12-30 19:52:39+00",17.3,20.3,,43.1,-500,-627,23,1025.78,44,0
"2020-12-30 19:57:39+00",15.7,19.7,,43.3,-471,-553,35,1025.72,44.1,0
"2020-12-30 20:02:39+00",15.5,19.5,,43.5,-463,-541,28,1025.7,44.3,0
"2020-12-30 20:07:39+00",17.6,21.6,,43.5,-538,-584,4,1025.56,44.3,0
"2020-12-30 20:12:39+00",17.3,20.3,,43.4,-515,-593,22,1025.56,44.2,0
"2020-12-30 20:17:39+00",15.4,19.4,,43.4,-492,-514,12,1025.5,44.2,0
"2020-12-30 20:22:39+00",16.0,19.0,,43.3,-453,-542,5,1025.4,44,0
"2020-12-30 20:27:39+00",13.6,15.6,,43.3,-386,-488,21,1025.36,43.8,0
"2020-12-30 20:32:39+00",13.7,15.7,,43.4,-345,-517,2,1025.27,43.7,0
"2020-12-30 20:37:39+00",14.3,18.3,,43.5,-360,-567,22,1025.34,43.8,0
"2020-12-30 20:42:39+00",19.7,22.7,,43.4,-457,-765,-5,1025.21,43.7,0
"2020-12-30 20:47:39+00",14.6,16.6,,43.3,-367,-552,-1,1025.06,43.5,0
"2020-12-30 20:52:39+00",13.4,18.4,,43.3,-300,-526,13,1025.05,43.4,0
"2020-12-30 20:57:39+00",13.9,15.9,,43.3,-368,-518,13,1024.93,43.2,0
"2020-12-30 21:02:39+00",15.5,17.5,,43.2,-387,-610,22,1025.01,43.1,0
"2020-12-30 21:07:39+00",13.7,16.7,,43.2,-299,-540,3,1024.97,42.9,0
"2020-12-30 21:12:39+00",12.5,14.5,,43,-257,-501,15,1024.87,42.8,0
"2020-12-30 21:17:39+00",14.6,18.6,,43,-217,-594,-1,1024.78,42.6,0
"2020-12-30 21:22:39+00",12.3,14.3,,42.8,-231,-498,7,1024.83,42.5,0
"2020-12-30 21:27:39+00",13.6,15.6,,42.8,-255,-548,7,1024.65,42.3,0
"2020-12-30 21:32:39+00",14.3,16.3,,42.8,-286,-568,-11,1024.68,42.3,0
"2020-12-30 21:37:39+00",14.0,18.0,,42.8,-265,-555,10,1024.61,42.2,0
"2020-12-30 21:42:39+00",14.5,17.5,,42.7,-277,-593,13,1024.69,42.1,0
"2020-12-30 21:47:39+00",13.7,16.7,,42.7,-260,-546,6,1024.58,42,0
"2020-12-30 21:52:39+00",13.0,16.0,,42.5,-248,-510,-6,1024.56,41.9,0
"2020-12-30 21:57:39+00",13.2,16.2,,42.5,-265,-533,2,1024.57,41.8,0
"2020-12-30 22:02:39+00",13.1,16.1,,42.5,-245,-536,8,1024.37,41.7,0
"2020-12-30 22:07:39+00",14.4,16.4,,42.7,-303,-574,9,1024.24,41.8,0
"2020-12-30 22:12:39+00",13.6,15.6,,42.6,-282,-537,7,1024.35,41.9,0
"2020-12-30 22:17:39+00",14.1,19.1,,42.8,-307,-562,2,1024.26,42,0
"2020-12-30 22:22:39+00",13.6,15.6,,42.8,-291,-542,-10,1024.25,42,0
"2020-12-30 22:27:39+00",12.6,14.6,,42.7,-261,-510,3,1024.25,41.9,0
"2020-12-30 22:32:39+00",12.3,14.3,,42.8,-271,-492,6,1024.18,42,0
"2020-12-30 22:37:39+00",11.9,13.9,,42.8,-235,-476,7,1024.14,41.9,0
"2020-12-30 22:42:39+00",13.1,15.1,,42.9,-272,-518,-4,1024.17,42,0
"2020-12-30 22:47:39+00",13.7,15.7,,42.9,-281,-544,4,1024.29,42,0
"2020-12-30 22:52:39+00",12.4,14.4,,43,-270,-504,14,1024.24,42.1,0
"2020-12-30 22:57:39+00",14.2,17.2,,43.1,-323,-567,22,1024.09,42.2,0
"2020-12-30 23:02:39+00",12.9,14.9,,43.3,-304,-493,-2,1024.08,42.3,0
"2020-12-30 23:07:39+00",13.3,15.3,,43.5,-276,-525,5,1024,42.5,0
"2020-12-30 23:12:39+00",15.5,19.5,,43.6,-304,-622,2,1023.96,42.7,0
"2020-12-30 23:17:39+00",13.9,15.9,,43.6,-253,-565,3,1023.77,42.8,0
"2020-12-30 23:22:39+00",13.9,16.9,,43.6,-275,-550,4,1023.8,42.8,0
"2020-12-30 23:27:39+00",12.8,15.8,,43.7,-299,-505,15,1023.76,42.8,0
"2020-12-30 23:32:39+00",14.4,18.4,,43.8,-333,-570,15,1023.68,42.9,0
"2020-12-30 23:37:39+00",13.7,16.7,,43.8,-320,-544,5,1023.6,43,0
"2020-12-30 23:42:39+00",15.6,18.6,,43.9,-382,-592,10,1023.44,43,0
"2020-12-30 23:47:39+00",18.2,21.2,,44.1,-429,-730,4,1023.35,43.1,0
"2020-12-30 23:52:39+00",15.9,18.9,,44,-366,-628,6,1023.22,43.2,0
"2020-12-30 23:57:39+00",17.9,20.9,,44.2,-434,-695,7,1023.17,43.3,0
